TimeCDT,TemperatureF,Dew PointF,Humidity,Sea Level PressureIn,VisibilityMPH,Wind Direction,Wind SpeedMPH,Gust SpeedMPH,PrecipitationIn,Events,Conditions,WindDirDegrees,DateUTC
12:51 AM,75.0,70.0,84,30.08,10.0,SSE,15.0,-,N/A,,Overcast,160,2013-04-27 05:51:00
1:51 AM,75.0,70.0,84,30.05,10.0,SSE,16.1,-,N/A,,Overcast,150,2013-04-27 06:51:00
2:51 AM,75.0,70.0,84,30.03,10.0,SSE,12.7,-,N/A,,Overcast,150,2013-04-27 07:51:00
3:51 AM,73.9,70.0,87,30.01,5.0,SSE,16.1,-,0.00,Rain,Light Rain,160,2013-04-27 08:51:00
4:51 AM,73.9,70.0,87,29.99,5.0,SSE,12.7,-,0.00,,Light Drizzle,150,2013-04-27 09:51:00
5:51 AM,73.9,70.0,87,30.00,4.0,SSE,11.5,-,0.00,,Overcast,160,2013-04-27 10:51:00
6:51 AM,73.9,70.0,87,30.01,4.0,SSE,10.4,-,0.00,Rain,Light Rain,150,2013-04-27 11:51:00
7:12 AM,73.4,69.8,88,30.02,2.5,SSE,6.9,-,0.00,Rain,Light Rain,150,2013-04-27 12:12:00
7:51 AM,73.9,71.1,91,30.02,2.0,SSE,10.4,-,0.00,,Light Drizzle,150,2013-04-27 12:51:00
8:09 AM,73.4,71.6,94,30.03,1.5,SSE,10.4,-,0.00,,Light Drizzle,150,2013-04-27 13:09:00
8:24 AM,73.4,71.6,94,30.03,2.0,SSE,8.1,-,0.00,,Overcast,160,2013-04-27 13:24:00
8:49 AM,75.2,71.6,89,30.04,4.0,SSE,11.5,-,0.00,,Overcast,150,2013-04-27 13:49:00
8:51 AM,75.0,71.1,87,30.03,4.0,SSE,13.8,-,0.00,,Overcast,150,2013-04-27 13:51:00
9:51 AM,75.9,70.0,82,30.05,7.0,SSE,13.8,-,N/A,,Overcast,160,2013-04-27 14:51:00
10:27 AM,77.0,69.8,78,30.06,8.0,South,10.4,-,N/A,,Overcast,170,2013-04-27 15:27:00
10:51 AM,78.1,70.0,76,30.06,10.0,SE,12.7,-,N/A,,Overcast,140,2013-04-27 15:51:00
11:20 AM,78.8,69.8,74,30.06,10.0,SE,13.8,-,N/A,,Overcast,140,2013-04-27 16:20:00
11:51 AM,80.1,69.1,69,30.05,10.0,SE,13.8,-,N/A,,Overcast,140,2013-04-27 16:51:00
12:51 PM,81.0,68.0,65,30.05,10.0,SSE,16.1,-,N/A,,Overcast,150,2013-04-27 17:51:00
1:51 PM,81.0,69.1,67,30.03,10.0,SE,19.6,-,N/A,,Overcast,130,2013-04-27 18:51:00
2:51 PM,82.9,68.0,60,30.00,10.0,ESE,19.6,-,N/A,,Overcast,120,2013-04-27 19:51:00
3:51 PM,82.0,66.9,60,29.98,10.0,SE,21.9,-,N/A,,Mostly Cloudy,140,2013-04-27 20:51:00
4:39 PM,82.4,66.2,58,29.95,10.0,SSE,20.7,-,N/A,,Scattered Clouds,150,2013-04-27 21:39:00
4:51 PM,84.0,66.9,56,29.94,10.0,SE,19.6,-,N/A,,Scattered Clouds,130,2013-04-27 21:51:00
5:51 PM,81.0,66.9,62,29.94,10.0,SE,19.6,-,N/A,,Scattered Clouds,140,2013-04-27 22:51:00
6:51 PM,79.0,68.0,69,29.94,10.0,SE,18.4,-,N/A,,Scattered Clouds,140,2013-04-27 23:51:00
7:51 PM,77.0,68.0,74,29.93,9.0,SE,12.7,-,N/A,,Scattered Clouds,130,2013-04-28 00:51:00
8:51 PM,75.9,69.1,79,29.93,9.0,ESE,9.2,-,N/A,,Scattered Clouds,110,2013-04-28 01:51:00
9:06 PM,75.2,69.8,83,29.94,9.0,East,15.0,-,N/A,,Mostly Cloudy,100,2013-04-28 02:06:00
9:51 PM,75.0,70.0,84,29.99,9.0,East,13.8,-,N/A,,Mostly Cloudy,100,2013-04-28 02:51:00
10:36 PM,75.2,69.8,83,30.00,9.0,ESE,11.5,-,N/A,Thunderstorm,Thunderstorm,110,2013-04-28 03:36:00
10:51 PM,75.0,70.0,84,30.00,9.0,ESE,10.4,-,N/A,Thunderstorm,Thunderstorm,120,2013-04-28 03:51:00
11:24 PM,75.2,69.8,83,30.00,10.0,SE,12.7,-,0.00,Rain-Thunderstorm,Light Thunderstorms and Rain,140,2013-04-28 04:24:00
11:51 PM,75.0,70.0,84,29.99,8.0,SSE,10.4,-,0.00,Rain-Thunderstorm,Light Thunderstorms and Rain,150,2013-04-28 04:51:00